{"data":{"norad_id":68742,"intl_designator":"2026-082Q","name":"STARLINK-37351","alt_names":[],"object_type":"PAYLOAD","status":"ACTIVE","operator":null,"country":"US","launch_date":"2026-04-15","launch_site_code":"AFWTR","launch_vehicle":null,"mission":null,"orbit_class":"UNKNOWN","rcs_meters":null,"size_class":null,"mass_kg":null,"dimensions":null,"purposes":["comms"],"wikipedia_slug":null,"has_3d_model":false,"image_url":null,"decayed_at":null,"tle_current":{"epoch":"2026-09-19T21:38:32.692992Z","epoch_age_seconds":93094,"freshness":"FRESH","line1":"1 68742U 26082Q   26262.90176728  .00010705  00000+0  33338-3 0  9998","line2":"2 68742  97.2856 125.0600 0001979  86.3286 273.8183 15.33451092 24213","mean_motion":15.33451092,"eccentricity":0.0001979,"inclination_deg":97.2856,"raan_deg":125.06,"arg_perigee_deg":86.3286,"mean_anomaly_deg":273.8183,"bstar":0.00033338,"rev_number":2421,"period_min":93.905831592052,"perigee_km":464.17068831272,"apogee_km":466.87940975173,"semimajor_km":6843.6620490322,"source":"CELESTRAK","updated_at":"2026-09-20T09:00:43.993861Z"}}}